Regional Weather Roundup
Issued by NWS

Home | Current Version | Previous Version | Text Only | Print | Product List | Glossary Off
Versions: 1 2 3 4 5 6 7 8 9 10 11 12 13 14 15 16 17 18 19 20 21 22 23 24 25 26 27 28 29 30 31 32 33 34 35 36 37 38 39 40 41 42 43 44 45 46 47 48 49 50

000
ASUS43 KOAX 242102
RWRNE

WEATHER ROUNDUP FOR NEBRASKA
NATIONAL WEATHER SERVICE OMAHA NE
400 PM CDT THU JUL 24 2014

NOTES: SATELLITE DATA IS BEING USED TO AUGMENT CLOUD COVER ABOVE
       12000 FEET.
       "FAIR" INDICATES FEW OR NO CLOUDS BELOW 12,000 FEET WITH NO
       SIGNIFICANT WEATHER AND/OR OBSTRUCTIONS TO VISIBILITY.

  * THESE STATIONS DO NOT REPORT WEATHER SUCH AS RAIN...SNOW OR FOG.

NEZ001>004-019>022-054>056-242200-
NEBRASKA PANHANDLE

CITY           SKY/WX    TMP DP  RH WIND       PRES   REMARKS
SCOTTSBLUFF    MOSUNNY   99  50  19 NW7       29.88F HX  96
ALLIANCE       SUNNY    103  44  13 NW7G20    29.86F HX  98
CHADRON        MOSUNNY  108  44  11 W20G26    29.76F HX 103
KIMBALL        MOSUNNY   94  50  22 SE15      29.97F HX  90
SIDNEY         PTSUNNY   90  47  22 NW14G22   29.97R
$$

NEZ057>060-069>072-079>082-242200-
SOUTHWEST NEBRASKA

CITY           SKY/WX    TMP DP  RH WIND       PRES   REMARKS
NORTH PLATTE   SUNNY     97  68  38 SE14G23   29.85F HX 102
IMPERIAL       SUNNY    103  42  12 S15       29.87F HX  98
LEXINGTON      SUNNY     93  71  49 SE22G29   29.90F HX 100
MCCOOK         SUNNY    102  61  25 S18G26    29.86F HX 103
OGALLALA       SUNNY     97  53  22 S6        29.86F HX  94
$$

NEZ005>010-023>029-035>040-094-242200-
NORTH CENTRAL NEBRASKA

CITY           SKY/WX    TMP DP  RH WIND       PRES   REMARKS
VALENTINE      SUNNY    103  66  30 S26G33    29.75F HX 107
AINSWORTH      SUNNY     92  66  41 S23G33    29.82F HX  95
BROKEN BOW     SUNNY     91  70  49 S24G36    29.89F HX  96
O`NEILL        MOSUNNY   88  65  45 S22G33    29.85F HX  90
ORD            SUNNY     86  68  54 S25G38    29.88F
THEDFORD       SUNNY     99  65  32 S23G30    29.85F HX 102
$$

NEZ041-046>049-061>064-073>077-083>087-242200-
SOUTH CENTRAL NEBRASKA

CITY           SKY/WX    TMP DP  RH WIND       PRES   REMARKS
GRAND ISLAND   SUNNY     87  68  52 S24G33    29.93F HX  90
AURORA         SUNNY     86  66  51 S21G28    29.93F
HASTINGS       SUNNY     88  64  44 S22G31    29.94F
HEBRON         SUNNY     88  61  40 S22G29    29.96F
HOLDREGE       SUNNY     93  66  41 S17G28    29.92F HX  95
KEARNEY *      SUNNY     91  70  49 SE22G31   29.93F HX  97
YORK           SUNNY     84  66  54 SE23      29.94F
$$

NEZ011>018-030>034-042>045-242200-
NORTHEAST NEBRASKA

CITY           SKY/WX    TMP DP  RH WIND       PRES   REMARKS
NORFOLK        MOSUNNY   85  64  49 SE21G29   29.92F
ALBION         MOSUNNY   84  65  52 S20G31    29.92F
BLAIR          MOSUNNY   80  61  52 SE15G22   30.00F
COLUMBUS *     MOSUNNY   84  64  51 S18G24    29.95S
FREMONT        MOSUNNY   84  62  47 SE17G25   29.99F
TEKAMAH        MOSUNNY   84  63  49 SE22G30   29.97F
WAYNE          SUNNY     84  65  53 S25G33    29.92F
$$

NEZ050>053-065>068-078-088>093-242200-
SOUTHEAST NEBRASKA

CITY           SKY/WX    TMP DP  RH WIND       PRES   REMARKS
LINCOLN        SUNNY     89  63  41 S16G28    29.97F HX  90
OMAHA EPPLEY   MOSUNNY   83  61  47 SE21      30.01S
BEATRICE       SUNNY     85  65  51 S17G23    29.97F
FALLS CITY     SUNNY     83  62  49 SE16G23   30.01F
NEBRASKA CITY  SUNNY     82  61  49 S15G23    30.01F
PLATTSMOUTH    SUNNY     81  60  48 SE9       30.03R
$$

NEZ044-045-051>053-067-242200-
OMAHA AREA

CITY           SKY/WX    TMP DP  RH WIND       PRES   REMARKS
OMAHA EPPLEY   MOSUNNY   83  61  47 SE21      30.01S
BLAIR          MOSUNNY   80  61  52 SE15G22   30.00F
FREMONT        MOSUNNY   84  62  47 SE17G25   29.99F
MILLARD        MOSUNNY   83  65  55 SE13G18   30.00F
OFFUTT AFB     MOSUNNY   84  64  51 SE17G23   30.02R
PLATTSMOUTH    SUNNY     81  60  48 SE9       30.03R
WAHOO          FAIR      85  62  45 SE16G22   29.98F
$$



USA.gov is the U.S. government's official web portal to all federal, state and local government web resources and services.